User: anonymous   Login
Location: L�gaud
(45.7115°N, 1.7775°E)
Time: 00:59:16
(UTC+00:00)
Language:

Cosmos 2333 Rocket - Orbit

View from above orbital plane
View from above orbital plane
View from above satellite
View from above satellite

Ground track
Ground track

The orbit data is extracted from the following two-line orbital elements,

1 24298U 96051B   21137.63468576 -.00000185  00000-0 -73704-4 0  9996
2 24298  70.8293 285.9445 0017921 221.8923 138.0827 14.12446459273809
Epoch (UTC): 17 May 2021 15:13:56
Eccentricity: 0.0017921
inclination: 70.8293°
perigee height: 838 km
apogee height: 864 km
right ascension of ascending node: 285.9445°
argument of perigee: 221.8923°
revolutions per day: 14.12446459
mean anomaly at epoch: 138.0827°
orbit number at epoch: 27380

The dashed part of the orbit path shows where the satellite is in the earth's shadow,  

DLR